Retour au catalogue

OPS 8579

DMSP 5B F5

ActifMétéoSSO
NORAD 7218·PAYLOAD·🇺🇸 United States

Lancé Mar 16, 1974 depuis Vandenberg Space Force Base

Loading…

Prochains Passages (prochaines 24 heures)

TLE

FraisSource: Space-Track

Époque: Sep 13, 2026, 22:07 UTC

1 07218U 74015A   26256.92190550  .00000140  00000-0  68077-4 0  9994
2 07218  98.9937   3.3051 0056502  48.8447 311.7591 14.32225373733653

Suivez OPS 8579 en temps réel avec AllMySat

Download on the App Store